Lid_Strength_Index
2 2 1 2 2 2 2 2 2 3 3 2 3 3 3 2 3 4 7 5 4 -2 -2 2 2 2 2 4 4 4 10 12 12 12 10 7 8 6 4 6 5 4 5 3 2
2 2 2 2 2 2 2 2 2 2 3 2 2 3 2 2 4 7 2 -1 -3 -2 2 3 4 3 4 5 5 7 10 11 8 8 9 7 7 7 7 6 7 6 3 2 2
2 2 3 2 2 2 2 2 2 2 3 3 3 3 2 2 6 8 -2 -3 -2 -2 2 3 2 4 6 5 6 7 10 8 8 7 6 7 7 6 7 8 6 6 5 3 3
2 3 3 3 3 2 2 2 2 3 3 3 2 2 2 2 9 3 -3 -2 -2 3 3 5 4 6 7 7 6 9 7 7 7 6 7 8 6 7 7 7 4 4 3 3 4
2 3 3 2 2 2 2 2 3 3 3 3 2 2 2 5 5 -0 -3 -2 -1 4 6 7 6 6 7 7 7 8 7 7 6 6 6 6 7 7 7 5 3 3 4 4 3
2 2 2 2 3 2 2 2 3 3 3 2 2 2 3 7 2 -1 -0 -0 2 5 6 6 5 5 6 7 8 7 7 7 6 7 7 8 7 7 6 4 4 4 4 4 3
3 3 2 2 3 3 3 3 3 3 2 2 1 2 5 6 1 -1 1 4 4 5 6 6 3 6 5 7 5 7 9 8 7 7 8 6 9 9 6 5 6 5 4 4 3
3 3 3 3 3 3 4 4 3 2 2 2 1 2 6 3 2 2 4 5 5 5 5 6 5 5 5 5 7 9 9 12 8 7 7 7 12 7 5 6 6 5 5 4 4
3 3 3 3 4 4 4 4 2 1 1 1 2 3 5 0 3 3 4 5 6 5 4 6 6 5 6 8 10 10 12 12 10 7 8 9 11 7 6 6 7 6 5 5 4
3 3 3 4 4 4 4 4 1 1 1 1 2 5 4 4 2 5 4 5 6 6 6 6 7 6 7 9 12 11 11 11 11 9 9 10 10 8 6 6 7 6 5 5 4
3 3 4 4 5 5 4 2 5 5 3 5 5 6 5 2 3 5 5 5 5 6 8 7 8 9 7 8 7 8 9 10 9 8 10 10 10 8 7 7 7 6 6 5 4
3 4 4 4 5 5 5 7 5 4 6 4 4 4 4 3 5 5 4 5 6 7 8 8 9 7 8 7 8 9 10 9 9 9 9 10 10 8 7 7 7 6 6 5 4
4 4 5 5 5 5 5 5 3 4 6 7 5 5 5 4 5 5 4 6 6 8 8 8 8 7 8 9 10 10 9 9 9 10 9 10 11 10 8 7 6 6 5 5 5
4 4 5 5 6 6 5 3 4 4 9 9 7 5 4 4 6 3 4 4 7 8 9 8 7 8 9 9 9 10 8 8 9 11 13 10 16 11 9 9 8 6 6 5 5
5 5 6 6 7 6 4 4 4 7 13 8 7 3 5 6 6 7 6 6 8 8 8 9 9 9 9 9 8 9 6 8 9 11 12 12 14 11 10 10 9 7 6 5 4
6 7 7 8 8 6 5 5 6 10 14 9 7 8 7 7 8 7 7 6 7 8 8 8 8 8 7 8 8 6 9 10 10 11 15 12 13 11 10 9 8 7 6 5 4
6 7 7 6 7 5 5 7 10 13 10 10 9 8 8 8 9 8 8 9 9 11 10 9 9 7 7 9 8 7 9 12 13 15 13 11 13 10 7 7 7 7 6 5 4
7 7 6 6 5 5 5 8 13 12 11 8 8 9 9 8 7 9 9 9 9 9 10 11 12 9 7 8 8 8 8 11 14 13 12 12 14 10 7 6 6 5 5 5 5
7 5 5 4 5 5 6 11 11 11 9 9 8 10 10 8 8 9 9 8 8 8 10 10 10 8 8 7 7 10 10 8 11 12 13 10 10 7 6 7 6 6 6 6 5
6 5 4 4 4 5 7 11 10 9 8 8 10 9 10 10 9 9 9 8 8 8 6 8 10 8 8 7 9 8 8 11 10 13 14 11 11 11 8 6 6 7 6 5 5
6 5 4 4 5 5 9 9 9 7 7 8 9 9 9 9 9 10 9 8 8 8 7 8 9 9 8 9 8 10 10 10 10 10 12 13 11 7 7 7 7 7 6 5 5
6 7 3 4 6 9 8 9 9 7 6 7 7 8 8 8 9 9 9 8 7 8 10 8 9 10 9 8 8 9 9 9 11 11 11 11 10 6 6 6 6 6 6 5 4
6 6 3 4 9 8 8 8 7 8 7 7 8 7 7 8 9 9 8 7 6 7 8 9 10 11 10 10 10 10 9 8 9 9 11 12 10 6 6 7 6 6 6 5 5
6 8 6 6 7 8 9 9 8 7 7 7 8 7 8 8 8 9 8 7 6 6 4 7 9 10 11 10 9 10 10 9 9 10 10 10 9 7 6 7 6 6 5 5 5
7 9 9 9 8 9 9 9 9 9 7 7 7 8 8 10 9 9 8 7 6 5 6 8 9 9 9 9 10 8 8 10 10 9 10 8 9 7 6 6 6 6 5 5 5
8 8 7 8 9 9 10 9 9 9 8 9 9 8 8 9 9 10 8 8 8 6 7 7 10 9 10 8 9 10 9 9 10 9 8 8 9 5 5 6 6 6 6 6 5
6 6 7 11 9 10 9 9 9 8 7 7 8 8 8 8 7 7 7 6 7 8 8 8 9 11 12 9 9 11 9 8 8 8 8 10 7 6 6 6 6 6 6 6 5